Location: Delettes
(50.6178°N, 2.2123°E)
Time: 19:44:15
(UTC+00:00)

STARLINK 1040 - Pass Details

Date: 27 February 2020
Orbit: 316 x 321 km, 53.0° (Epoch: 05 April)

Event Time Altitude Azimuth Distance (km) Brightness Sun altitude
Rises 18:14:23 0° 271° (W) 2,151 9.1 -8.1°
Reaches altitude 10° 18:16:26 10° 277° (W) 1,305 7.2 -8.4°
Maximum altitude 18:19:17 51° 354° (N) 442 3.2 -8.9°
Enters shadow 18:21:40 13° 71° (ENE) 1,120 4.6 -9.2°
